Champaign, IL

8:32 AM CDT on May 21, 2018 (GMT -0500)
Univ Of Illinois-Willard

Weather History for KCMI - February, 2013

Change the Weather History Date:

Saturday, February 9, 2013

  Actual Average Record
Temperature  
Mean Temperature 35 °F 28 °F  
Max Temperature 40 °F 36 °F 61 °F (2009)
Min Temperature 29 °F 19 °F -6 °F (2011)
Degree Days  
Heating Degree Days 30 37  
Month to date heating degree days 324 344  
Since 1 July heating degree days 3508 3854  
Cooling Degree Days 0 0  
Month to date cooling degree days 0 0  
Year to date cooling degree days 0 0  
Moisture  
Dew Point 26 °F    
Average Humidity 76    
Maximum Humidity 82    
Minimum Humidity 70    
Precipitation  
Precipitation 0.00 in 0.08 in 0.73 in (2001)
Month to date precipitation 0.23 0.63  
Year to date precipitation 2.60 2.68  
Sea Level Pressure  
Sea Level Pressure 30.29 in    
Wind  
Wind Speed 9 mph (SE)    
Max Wind Speed 17 mph    
Max Gust Speed 20 mph    
Visibility 10 miles    
Events      
T = Trace of Precipitation, MM = Missing Value Source: NWS Daily Summary

Daily Weather History Graph

Daily Weather History Graph

Search for Another Location

Airport or City:

Astronomy

Feb. 09, 2013 Rise Set
Actual Time 6:53 AM CST 5:22 PM CST
Civil Twilight 6:24 AM CST 5:50 PM CST
Nautical Twilight 5:52 AM CST 6:22 PM CST
Astronomical Twilight 5:21 AM CST 6:53 PM CST
Moon 6:04 AM CST (2/9) 5:04 PM CST (2/9)
Length of Visible Light 11h 25m
Length of Day
10h 29m
Waning Crescent, 0% of the Moon is Illuminated
Feb 9
Waning Crescent
Feb 10
New
Feb 17
First Quarter
Feb 25
Full
Mar 4
Last Quarter

Hourly Weather History & Observations

Time (CST) Temp. Windchill Dew Point Humidity Pressure Visibility Wind Dir Wind Speed Gust Speed Precip Events Conditions
12:53 AM 30.0 °F 24.1 °F 23.0 °F 75% 30.40 in 10.0 mi East 5.8 mph - N/A   Overcast
1:53 AM 30.0 °F 24.1 °F 24.1 °F 79% 30.39 in 10.0 mi East 5.8 mph - N/A   Overcast
2:53 AM 30.0 °F 23.2 °F 23.0 °F 75% 30.39 in 10.0 mi East 6.9 mph - N/A   Overcast
3:53 AM 30.0 °F 21.7 °F 24.1 °F 79% 30.39 in 10.0 mi ESE 9.2 mph - N/A   Overcast
4:53 AM 30.0 °F 23.2 °F 23.0 °F 75% 30.40 in 10.0 mi SE 6.9 mph - N/A   Overcast
5:53 AM 30.0 °F 21.7 °F 24.1 °F 79% 30.40 in 10.0 mi SSE 9.2 mph - N/A   Overcast
6:53 AM 28.9 °F 19.8 °F 21.9 °F 75% 30.39 in 10.0 mi SE 10.4 mph - N/A   Overcast
7:53 AM 30.0 °F 20.5 °F 24.1 °F 79% 30.38 in 10.0 mi SE 11.5 mph - N/A   Overcast
8:53 AM 30.0 °F 20.5 °F 24.1 °F 79% 30.39 in 10.0 mi SSE 11.5 mph - N/A   Overcast
9:53 AM 30.9 °F 21.2 °F 24.1 °F 76% 30.39 in 10.0 mi SSE 12.7 mph 18.4 mph N/A   Overcast
10:53 AM 30.9 °F 21.7 °F 25.0 °F 79% 30.39 in 10.0 mi South 11.5 mph - N/A   Overcast
11:53 AM 32.0 °F 24.8 °F 25.0 °F 75% 30.35 in 10.0 mi SSE 8.1 mph - N/A   Overcast
12:53 PM 35.1 °F 29.3 °F 27.0 °F 72% 30.32 in 10.0 mi SE 6.9 mph - N/A   Mostly Cloudy
1:32 PM 35.6 °F 28.6 °F 28.4 °F 75% 30.28 in 10.0 mi South 9.2 mph - N/A   Scattered Clouds
1:53 PM 37.0 °F 29.8 °F 28.9 °F 73% 30.30 in 10.0 mi SSE 10.4 mph - N/A   Partly Cloudy
2:53 PM 39.0 °F 31.8 °F 30.0 °F 70% 30.26 in 10.0 mi SE 11.5 mph - N/A   Clear
3:53 PM 39.9 °F 33.4 °F 30.0 °F 68% 30.22 in 10.0 mi SE 10.4 mph - N/A   Clear
4:53 PM 37.9 °F 31.5 °F 30.0 °F 73% 30.22 in 10.0 mi SE 9.2 mph - N/A   Clear
5:53 PM 33.1 °F 26.1 °F 28.9 °F 85% 30.20 in 10.0 mi SE 8.1 mph - N/A   Clear
6:53 PM 33.1 °F 26.1 °F 28.9 °F 85% 30.19 in 10.0 mi SE 8.1 mph - N/A   Clear
7:53 PM 34.0 °F 26.6 °F 28.9 °F 82% 30.17 in 10.0 mi SE 9.2 mph - N/A   Clear
8:53 PM 34.0 °F 26.6 °F 28.9 °F 82% 30.15 in 10.0 mi ESE 9.2 mph - N/A   Clear
9:53 PM 33.1 °F 26.1 °F 28.9 °F 85% 30.14 in 10.0 mi ESE 8.1 mph - N/A   Clear
10:53 PM 34.0 °F 25.5 °F 28.9 °F 82% 30.12 in 10.0 mi SE 11.5 mph - N/A   Clear
11:53 PM 34.0 °F 25.5 °F 28.9 °F 82% 30.10 in 10.0 mi SE 11.5 mph - N/A   Clear